Погода в Макарьеве

Россия / Костромская область     57°52′48″N   43°48′28″E
темп.,
°C
ветер,
м/с
пор.,
м/с
влажн.,
%
обл.,
%
осадки,
мм/ч
давл.,
гПа
погр.,
м
17 апреля, сб
сб1700:00+3всв311875 0.0 1029252
03:00+1всв39885 0.0 1030193
06:000всв3108414 0.0 1030210
09:00+7всв48623 0.0 1030545
12:00+10всв46505 0.0 10301102
15:00+11всв45495 0.0 10291266
18:00+9св26685 0.0 1027160
21:00+4всв24865 0.0 102761
18 апреля, вс
вс1800:00+2св25905 0.0 102780
03:00+2св39925 0.0 1027167
06:00+2св288797 0.0 1027201
09:00+8св476392 0.0 1027560
12:00+10св5756100 0.0 10271308
15:00+8св6767100 0.0 1028961
18:00+5всв4876100 0.0 10291059
21:00+3всв41174100 0.0 1030485
19 апреля, пн
пн1900:00+2всв41170100 0.0 1031508
03:000всв41176100 0.0 1032418
06:00−1всв4127414 0.0 1032501
09:00+4в69515 0.0 10331067
12:00+7в68405 0.0 10321667
15:00+8в68365 0.0 10311785
18:00+6в48440 0.0 10321381
21:00+2в312610 0.0 1033376
20 апреля, вт
вт2000:000в312670 0.0 1033331
03:00−1в412670 0.0 1033342
06:000в412580 0.0 1033453
09:00+6вюв59360 0.0 1032929
12:00+9вюв58361 0.0 10311549
15:00+11вюв68330 0.0 10291684
18:00+9вюв49410 0.0 1028766
21:00+5вюв51352100 0.0 1028477
21 апреля, ср
ср2100:00+3вюв51455100 0.0 1026612
03:00+3вюв61653100 0.0 1024749
06:00+3вюв71852100 0.0 1022815
09:00+6вюв81745100 0.0 1019985
12:00+3юв81774100 0.3 10191048
15:00+3юв81689100 1.4 1018910
18:00+3юв81789100 0.3 1017880
21:00+4юв71690100 0.8 1016989